Location: Maignaut
(43.8886°N, 0.4051°E)
Time: 19:32:56
(UTC+00:00)

CZ-2C R/B - Pass Details

Date: 17 January 2021
Orbit: 704 x 908 km, 98.1° (Epoch: 28 February)

Event Time Altitude Azimuth Distance (km) Brightness Sun altitude
Rises 17:41:44 0° 146° (SE) 3,232 6.1 -9.5°
Reaches altitude 10° 17:44:03 10° 140° (SE) 2,339 5.3 -9.9°
Maximum altitude 17:48:57 44° 69° (ENE) 1,113 3.4 -10.7°
Drops below altitude 10° 17:54:08 10° 359° (N) 2,482 5.5 -11.6°
Sets 17:56:40 0° 353° (N) 3,451 6.3 -12.0°
